Home > Weather > Cupertino > Past weeks

Flag for USA Past Weather in Cupertino, California, USA — Yesterday and Last 2 Weeks

Now
77 °F

Sunny.


Feels Like: 78 °F
Forecast: 59 / 89 °F
Wind: 8 mph from Northwest

Location: Moffett Field

Current Time: Jul 26, 2016 at 8:58:36 PM

Latest Report: Jul 26, 2016 at 7:56 PM


Visibility: 10 mi

Pressure: 29.84 "Hg

Humidity: 40%

Dew Point: 51 °F

Location of CupertinoLocation

Past Weather in Cupertino — Graph

°F

Cupertino Temperature Yesterday

Maximum temperature yesterday: 79 °F (at 2:56 PM)
Minimum temperature yesterday: 58 °F (at 3:56 AM)
Average temperature yesterday: 68 °F

High & Low Weather Summary for the Past Weeks

 TemperatureHumidityPressure
High88 °F (Jul 26, 2:56 PM)90% (Jul 15, 1:56 AM)30.14 "Hg (Jul 15, 1:56 AM)
Low55 °F (Jul 19, 5:56 AM)25% (Jul 26, 2:56 PM)29.83 "Hg (Jul 26, 4:56 PM)
Average66 °F66%29.98 "Hg
* Reported Jul 11 7:56 PM — Jul 26 7:56 PM, Cupertino, Weather by CustomWeather, © 2016

Note: Actual official high and low records may vary slightly from our data, if they occured in-between our weather recording intervals... More about our weather records

Advertising

Cupertino Weather History for the Previous 24 Hours

Scroll right to see more
 ConditionsComfort  
Time TempWeatherWind HumidityBarometerVisibility
7:56 PM
Tue, Jul 26
77 °FSunny.8 mph40%29.84 "Hg10 mi
6:56 PM80 °FSunny.10 mph35%29.83 "Hg10 mi
5:56 PM85 °FSunny.8 mph28%29.83 "Hg10 mi
4:56 PM85 °FSunny.14 mph27%29.83 "Hg10 mi
3:56 PM87 °FSunny.9 mph29%29.85 "Hg10 mi
2:56 PM88 °FSunny.10 mph25%29.87 "Hg10 mi
1:56 PM87 °FSunny.9 mph29%29.88 "Hg10 mi
12:56 PM86 °FSunny.7 mph30%29.89 "Hg10 mi
11:56 AM82 °FSunny.6 mph41%29.91 "Hg10 mi
10:56 AM77 °FSunny.3 mph54%29.93 "Hg10 mi
9:56 AM71 °FSunny.3 mph63%29.94 "Hg10 mi
8:56 AM67 °FSunny.No wind73%29.94 "Hg10 mi
7:56 AM65 °FSunny.No wind76%29.93 "Hg10 mi
6:56 AM61 °FClear.3 mph78%29.92 "Hg10 mi
5:56 AM61 °FClear.No wind78%29.91 "Hg10 mi
4:56 AM62 °FClear.No wind78%29.91 "Hg10 mi
3:56 AM62 °FPassing clouds.No wind78%29.91 "Hg10 mi
2:56 AM63 °FClear.No wind78%29.91 "Hg10 mi
1:56 AM63 °FClear.No wind78%29.90 "Hg10 mi
12:56 AM63 °FClear.3 mph81%29.92 "Hg10 mi
11:56 PM
Mon, Jul 25
64 °FClear.3 mph78%29.92 "Hg10 mi
10:56 PM64 °FClear.3 mph75%29.93 "Hg10 mi
9:56 PM66 °FClear.3 mph70%29.92 "Hg10 mi
8:56 PM67 °FSunny.5 mph71%29.91 "Hg10 mi
Weather by CustomWeather, © 2016

See weather overviewHow to use our weather pages